Year,Month,Day,Hour,Minute,Value (Times are PST for windspeed in km/hr)
2016,11,03,00,00,17.70
2016,11,03,00,01,17.50
2016,11,03,00,02,15.90
2016,11,03,00,03,13.50
2016,11,03,00,04,13.20
2016,11,03,00,05,13.20
2016,11,03,00,06,18.40
2016,11,03,00,07,17.80
2016,11,03,00,08,13.80
2016,11,03,00,09,15.50
2016,11,03,00,10,18.20
2016,11,03,00,11,11.90
2016,11,03,00,12,11.90
2016,11,03,00,13,14.30
2016,11,03,00,14,14.30
2016,11,03,00,15,17.60
2016,11,03,00,16,13.70
2016,11,03,00,17,15.90
2016,11,03,00,18,18.00
2016,11,03,00,19,15.70
2016,11,03,00,20,17.70
2016,11,03,00,21,20.30
2016,11,03,00,22,17.60
2016,11,03,00,23,11.10
2016,11,03,00,24,20.20
2016,11,03,00,25,17.10
2016,11,03,00,26,20.10
2016,11,03,00,27,22.30
2016,11,03,00,28,15.90
2016,11,03,00,29,21.80
2016,11,03,00,30,16.50
2016,11,03,00,31,18.80
2016,11,03,00,32,21.20
2016,11,03,00,33,22.50
2016,11,03,00,34,17.50
2016,11,03,00,35,19.80
2016,11,03,00,36,19.90
2016,11,03,00,37,18.80
2016,11,03,00,38,17.50
2016,11,03,00,39,19.80
2016,11,03,00,40,30.30
2016,11,03,00,41,27.40
2016,11,03,00,42,22.20
2016,11,03,00,43,20.00
2016,11,03,00,44,14.90
2016,11,03,00,45,15.70
2016,11,03,00,46,19.10
2016,11,03,00,47,14.40
2016,11,03,00,48,11.40
2016,11,03,00,49,14.60
2016,11,03,00,50,18.00
2016,11,03,00,51,21.80
2016,11,03,00,52,22.10
2016,11,03,00,53,21.60
2016,11,03,00,54,19.70
2016,11,03,00,55,29.40
2016,11,03,00,56,27.70
2016,11,03,00,57,25.50
2016,11,03,00,58,16.20
2016,11,03,00,59,15.00
2016,11,03,01,00,14.00
2016,11,03,01,01,14.20
2016,11,03,01,02,15.70
2016,11,03,01,03,9.10
2016,11,03,01,04,15.90
2016,11,03,01,05,13.40
2016,11,03,01,06,10.80
2016,11,03,01,07,12.00
2016,11,03,01,08,13.90
2016,11,03,01,09,14.10
2016,11,03,01,10,15.90
2016,11,03,01,11,13.90
2016,11,03,01,12,11.10
2016,11,03,01,13,19.80
2016,11,03,01,14,17.80
2016,11,03,01,15,20.40
2016,11,03,01,16,14.90
2016,11,03,01,17,13.30
2016,11,03,01,18,13.80
2016,11,03,01,19,10.70
2016,11,03,01,20,9.40
2016,11,03,01,21,14.80
2016,11,03,01,22,11.60
2016,11,03,01,23,12.30
2016,11,03,01,24,13.50
2016,11,03,01,25,16.80
2016,11,03,01,26,14.00
2016,11,03,01,27,15.60
2016,11,03,01,28,17.20
2016,11,03,01,29,13.80
2016,11,03,01,30,12.90
2016,11,03,01,31,6.50
2016,11,03,01,32,10.90
2016,11,03,01,33,9.80
2016,11,03,01,34,13.80
2016,11,03,01,35,8.10
2016,11,03,01,36,4.30
2016,11,03,01,37,7.20
2016,11,03,01,38,6.50
2016,11,03,01,39,13.10
2016,11,03,01,40,7.30
2016,11,03,01,41,8.80
2016,11,03,01,42,5.40
2016,11,03,01,43,9.70
2016,11,03,01,44,6.70
2016,11,03,01,45,9.90
2016,11,03,01,46,12.70
2016,11,03,01,47,7.90
2016,11,03,01,48,8.00
2016,11,03,01,49,11.30
2016,11,03,01,50,10.40
2016,11,03,01,51,11.10
2016,11,03,01,52,16.60
2016,11,03,01,53,14.60
2016,11,03,01,54,12.00
2016,11,03,01,55,7.20
2016,11,03,01,56,12.00
2016,11,03,01,57,14.60
2016,11,03,01,58,15.70
2016,11,03,01,59,13.80
2016,11,03,02,00,10.80
2016,11,03,02,01,10.00
2016,11,03,02,02,10.50
2016,11,03,02,03,6.70
2016,11,03,02,04,6.60
2016,11,03,02,05,10.90
2016,11,03,02,06,10.30
2016,11,03,02,07,6.40
2016,11,03,02,08,9.40
2016,11,03,02,09,8.00
2016,11,03,02,10,6.00
2016,11,03,02,11,15.00
2016,11,03,02,12,9.00
2016,11,03,02,13,14.40
2016,11,03,02,14,9.60
2016,11,03,02,15,12.70
2016,11,03,02,16,15.90
2016,11,03,02,17,16.40
2016,11,03,02,18,18.20
2016,11,03,02,19,17.50
2016,11,03,02,20,11.30
2016,11,03,02,21,13.30
2016,11,03,02,22,16.40
2016,11,03,02,23,15.40
2016,11,03,02,24,13.10
2016,11,03,02,25,19.10
2016,11,03,02,26,17.60
2016,11,03,02,27,15.80
2016,11,03,02,28,15.90
2016,11,03,02,29,12.80
2016,11,03,02,30,16.70
2016,11,03,02,31,34.70
2016,11,03,02,32,26.70
2016,11,03,02,33,21.00
2016,11,03,02,34,26.20
2016,11,03,02,35,24.80
2016,11,03,02,36,18.50
2016,11,03,02,37,13.10
2016,11,03,02,38,20.60
2016,11,03,02,39,21.90
2016,11,03,02,40,25.70
2016,11,03,02,41,27.40
2016,11,03,02,42,30.60
2016,11,03,02,43,21.60
2016,11,03,02,44,17.10
2016,11,03,02,45,15.60
2016,11,03,02,46,19.90
2016,11,03,02,47,20.30
2016,11,03,02,48,15.90
2016,11,03,02,49,18.10
2016,11,03,02,50,10.20
2016,11,03,02,51,10.10
2016,11,03,02,52,13.60
2016,11,03,02,53,14.40
2016,11,03,02,54,15.20
2016,11,03,02,55,14.60
2016,11,03,02,56,25.20
2016,11,03,02,57,20.80
2016,11,03,02,58,15.90
2016,11,03,02,59,19.80
2016,11,03,03,00,27.80
2016,11,03,03,01,18.20
2016,11,03,03,02,22.80
2016,11,03,03,03,23.70
2016,11,03,03,04,26.30
2016,11,03,03,05,23.80
2016,11,03,03,06,25.80
2016,11,03,03,07,25.30
2016,11,03,03,08,23.70
2016,11,03,03,09,15.80
2016,11,03,03,10,11.90
2016,11,03,03,11,15.40
2016,11,03,03,12,15.90
2016,11,03,03,13,11.60
2016,11,03,03,14,13.80
2016,11,03,03,15,17.20
2016,11,03,03,16,15.60
2016,11,03,03,17,16.90
2016,11,03,03,18,19.90
2016,11,03,03,19,24.30
2016,11,03,03,20,19.60
2016,11,03,03,21,19.70
2016,11,03,03,22,17.00
2016,11,03,03,23,18.30
2016,11,03,03,24,16.30
2016,11,03,03,25,20.60
2016,11,03,03,26,17.20
2016,11,03,03,27,18.00
2016,11,03,03,28,18.60
2016,11,03,03,29,29.70
2016,11,03,03,30,29.80
2016,11,03,03,31,25.60
2016,11,03,03,32,29.70
2016,11,03,03,33,26.60
2016,11,03,03,34,21.60
2016,11,03,03,35,35.30
2016,11,03,03,36,37.30
2016,11,03,03,37,25.20
2016,11,03,03,38,23.30
2016,11,03,03,39,25.50
2016,11,03,03,40,27.30
2016,11,03,03,41,36.20
2016,11,03,03,42,29.50
2016,11,03,03,43,27.60
2016,11,03,03,44,28.30
2016,11,03,03,45,20.80
2016,11,03,03,46,27.40
2016,11,03,03,47,26.60
2016,11,03,03,48,35.80
2016,11,03,03,49,30.20
2016,11,03,03,50,33.20
2016,11,03,03,51,18.90
2016,11,03,03,52,37.20
2016,11,03,03,53,35.40
2016,11,03,03,54,28.30
2016,11,03,03,55,29.50
2016,11,03,03,56,29.20
2016,11,03,03,57,25.70
2016,11,03,03,58,24.50
2016,11,03,03,59,26.90
2016,11,03,04,00,22.60
2016,11,03,04,01,32.70
2016,11,03,04,02,28.10
2016,11,03,04,03,18.30
2016,11,03,04,04,22.20
2016,11,03,04,05,24.80
2016,11,03,04,06,16.50
2016,11,03,04,07,24.20
2016,11,03,04,08,39.10
2016,11,03,04,09,35.00
2016,11,03,04,10,18.70
2016,11,03,04,11,24.30
2016,11,03,04,12,19.00
2016,11,03,04,13,25.20
2016,11,03,04,14,18.90
2016,11,03,04,15,21.60
2016,11,03,04,16,24.10
2016,11,03,04,17,22.70
2016,11,03,04,18,24.90
2016,11,03,04,19,17.60
2016,11,03,04,20,17.80
2016,11,03,04,21,21.20
2016,11,03,04,22,21.70
2016,11,03,04,23,22.40
2016,11,03,04,24,21.10
2016,11,03,04,25,17.00
2016,11,03,04,26,23.60
2016,11,03,04,27,25.00
2016,11,03,04,28,23.40
2016,11,03,04,29,20.00
2016,11,03,04,30,22.00
2016,11,03,04,31,19.80
2016,11,03,04,32,23.40
2016,11,03,04,33,20.40
2016,11,03,04,34,18.80
2016,11,03,04,35,16.00
2016,11,03,04,36,17.90
2016,11,03,04,37,25.70
2016,11,03,04,38,32.70
2016,11,03,04,39,22.20
2016,11,03,04,40,31.80
2016,11,03,04,41,33.60
2016,11,03,04,42,25.70
2016,11,03,04,43,28.60
2016,11,03,04,44,28.90
2016,11,03,04,45,36.20
2016,11,03,04,46,35.90
2016,11,03,04,47,30.50
2016,11,03,04,48,24.10
2016,11,03,04,49,33.20
2016,11,03,04,50,33.80
2016,11,03,04,51,34.90
2016,11,03,04,52,35.60
2016,11,03,04,53,31.00
2016,11,03,04,54,26.70
2016,11,03,04,55,24.40
2016,11,03,04,56,24.50
2016,11,03,04,57,21.40
2016,11,03,04,58,29.30
2016,11,03,04,59,27.40
2016,11,03,05,00,28.20
2016,11,03,05,01,28.30
2016,11,03,05,02,28.00
2016,11,03,05,03,31.00
2016,11,03,05,04,28.20
2016,11,03,05,05,30.50
2016,11,03,05,06,26.60
2016,11,03,05,07,25.70
2016,11,03,05,08,36.10
2016,11,03,05,09,35.30
2016,11,03,05,10,26.30
2016,11,03,05,11,25.50
2016,11,03,05,12,25.00
2016,11,03,05,13,26.40
2016,11,03,05,14,28.90
2016,11,03,05,15,28.70
2016,11,03,05,16,32.00
2016,11,03,05,17,26.70
2016,11,03,05,18,24.10
2016,11,03,05,19,30.30
2016,11,03,05,20,24.30
2016,11,03,05,21,37.70
2016,11,03,05,22,30.30
2016,11,03,05,23,30.70
2016,11,03,05,24,26.30
2016,11,03,05,25,32.40
2016,11,03,05,26,22.20
2016,11,03,05,27,25.00
2016,11,03,05,28,21.70
2016,11,03,05,29,23.10
2016,11,03,05,30,26.20
2016,11,03,05,31,32.30
2016,11,03,05,32,31.10
2016,11,03,05,33,18.90
2016,11,03,05,34,21.00
2016,11,03,05,35,26.00
2016,11,03,05,36,23.70
2016,11,03,05,37,24.50
2016,11,03,05,38,25.80
2016,11,03,05,39,26.50
2016,11,03,05,40,27.80
2016,11,03,05,41,21.10
2016,11,03,05,42,29.60
2016,11,03,05,43,20.10
2016,11,03,05,44,25.30
2016,11,03,05,45,18.80
2016,11,03,05,46,20.60
2016,11,03,05,47,16.00
2016,11,03,05,48,16.00
2016,11,03,05,49,19.10
2016,11,03,05,50,14.90
2016,11,03,05,51,16.30
2016,11,03,05,52,21.20
2016,11,03,05,53,21.90
2016,11,03,05,54,19.00
2016,11,03,05,55,19.20
2016,11,03,05,56,20.50
2016,11,03,05,57,20.90
2016,11,03,05,58,25.70
2016,11,03,05,59,26.10
2016,11,03,06,00,21.40
2016,11,03,06,01,21.50
2016,11,03,06,02,20.50
2016,11,03,06,03,22.80
2016,11,03,06,04,24.60
2016,11,03,06,05,32.30
2016,11,03,06,06,35.20
2016,11,03,06,07,32.20
2016,11,03,06,08,28.30
2016,11,03,06,09,25.40
2016,11,03,06,10,28.10
2016,11,03,06,11,30.90
2016,11,03,06,12,34.70
2016,11,03,06,13,30.90
2016,11,03,06,14,35.00
2016,11,03,06,15,28.60
2016,11,03,06,16,26.80
2016,11,03,06,17,27.80
2016,11,03,06,18,20.60
2016,11,03,06,19,24.10
2016,11,03,06,20,21.70
2016,11,03,06,21,28.40
2016,11,03,06,22,32.30
2016,11,03,06,23,20.50
2016,11,03,06,24,29.10
2016,11,03,06,25,24.90
2016,11,03,06,26,30.60
2016,11,03,06,27,24.70
2016,11,03,06,28,25.10
2016,11,03,06,29,29.10
2016,11,03,06,30,29.50
2016,11,03,06,31,24.90
2016,11,03,06,32,24.50
2016,11,03,06,33,28.10
2016,11,03,06,34,35.80
2016,11,03,06,35,28.90
2016,11,03,06,36,26.00
2016,11,03,06,37,22.80
2016,11,03,06,38,22.90
2016,11,03,06,39,27.30
2016,11,03,06,40,25.10
2016,11,03,06,41,25.00
2016,11,03,06,42,30.40
2016,11,03,06,43,24.40
2016,11,03,06,44,29.70
2016,11,03,06,45,33.00
2016,11,03,06,46,20.10
2016,11,03,06,47,24.50
2016,11,03,06,48,25.70
2016,11,03,06,49,24.10
2016,11,03,06,50,22.70
2016,11,03,06,51,20.20
2016,11,03,06,52,15.10
2016,11,03,06,53,26.80
2016,11,03,06,54,20.90
2016,11,03,06,55,20.40
2016,11,03,06,56,27.80
2016,11,03,06,57,24.20
2016,11,03,06,58,22.80
2016,11,03,06,59,24.40
2016,11,03,07,00,27.60
2016,11,03,07,01,28.70
2016,11,03,07,02,24.10
2016,11,03,07,03,17.60
2016,11,03,07,04,23.50
2016,11,03,07,05,24.70
2016,11,03,07,06,23.80
2016,11,03,07,07,27.40
2016,11,03,07,08,22.80
2016,11,03,07,09,24.80
2016,11,03,07,10,24.80
2016,11,03,07,11,23.70
2016,11,03,07,12,25.00
2016,11,03,07,13,23.00
2016,11,03,07,14,21.60
2016,11,03,07,15,25.90
2016,11,03,07,16,22.90
2016,11,03,07,17,16.70
2016,11,03,07,18,14.20
2016,11,03,07,19,14.60
2016,11,03,07,20,17.50
2016,11,03,07,21,25.10
2016,11,03,07,22,15.90
2016,11,03,07,23,15.70
2016,11,03,07,24,17.40
2016,11,03,07,25,19.70
2016,11,03,07,26,21.40
2016,11,03,07,27,25.80
2016,11,03,07,28,24.30
2016,11,03,07,29,24.50
2016,11,03,07,30,18.10
2016,11,03,07,31,23.20
2016,11,03,07,32,22.40
2016,11,03,07,33,16.20
2016,11,03,07,34,20.30
2016,11,03,07,35,19.10
2016,11,03,07,36,22.20
2016,11,03,07,37,23.50
2016,11,03,07,38,18.40
2016,11,03,07,39,19.50
2016,11,03,07,40,16.20
2016,11,03,07,41,19.20
2016,11,03,07,42,20.80
2016,11,03,07,43,21.90
2016,11,03,07,44,14.80
2016,11,03,07,45,17.20
2016,11,03,07,46,20.90
2016,11,03,07,47,15.70
2016,11,03,07,48,24.50
2016,11,03,07,49,17.10
2016,11,03,07,50,18.00
2016,11,03,07,51,21.40
2016,11,03,07,52,16.80
2016,11,03,07,53,16.40
2016,11,03,07,54,17.30
2016,11,03,07,55,17.40
2016,11,03,07,56,21.50
2016,11,03,07,57,18.10
2016,11,03,07,58,18.00
2016,11,03,07,59,22.00
2016,11,03,08,00,24.60
2016,11,03,08,01,24.50
2016,11,03,08,02,19.30
2016,11,03,08,03,18.20
2016,11,03,08,04,25.40
2016,11,03,08,05,20.80
2016,11,03,08,06,19.00
2016,11,03,08,07,20.50
2016,11,03,08,08,19.80
2016,11,03,08,09,16.60
2016,11,03,08,10,16.80
2016,11,03,08,11,22.10
2016,11,03,08,12,21.20
2016,11,03,08,13,15.80
2016,11,03,08,14,19.50
2016,11,03,08,15,22.50
2016,11,03,08,16,18.40
2016,11,03,08,17,25.00
2016,11,03,08,18,19.70
2016,11,03,08,19,22.20
2016,11,03,08,20,22.60
2016,11,03,08,21,14.80
2016,11,03,08,22,13.40
2016,11,03,08,23,17.30
2016,11,03,08,24,17.60
2016,11,03,08,25,23.10
2016,11,03,08,26,22.20
2016,11,03,08,27,19.70
2016,11,03,08,28,21.10
2016,11,03,08,29,19.70
2016,11,03,08,30,16.40
2016,11,03,08,31,19.60
2016,11,03,08,32,20.80
2016,11,03,08,33,20.40
2016,11,03,08,34,18.90
2016,11,03,08,35,19.10
2016,11,03,08,36,19.80
2016,11,03,08,37,20.90
2016,11,03,08,38,18.40
2016,11,03,08,39,16.20
2016,11,03,08,40,19.90
2016,11,03,08,41,14.30
2016,11,03,08,42,20.40
2016,11,03,08,43,20.00
2016,11,03,08,44,25.00
2016,11,03,08,45,17.00
2016,11,03,08,46,20.20
2016,11,03,08,47,17.60
2016,11,03,08,48,19.00
2016,11,03,08,49,21.40
2016,11,03,08,50,20.60
2016,11,03,08,51,19.00
2016,11,03,08,52,17.00
2016,11,03,08,53,19.80
2016,11,03,08,54,19.70
2016,11,03,08,55,21.10
2016,11,03,08,56,18.90
2016,11,03,08,57,16.70
2016,11,03,08,58,21.30
2016,11,03,08,59,22.00
2016,11,03,09,00,19.20
2016,11,03,09,01,16.80
2016,11,03,09,02,17.20
2016,11,03,09,03,25.30
2016,11,03,09,04,21.80
2016,11,03,09,05,22.80
2016,11,03,09,06,19.60
2016,11,03,09,07,15.10
2016,11,03,09,08,16.80
2016,11,03,09,09,15.10
2016,11,03,09,10,17.50
2016,11,03,09,11,21.90
2016,11,03,09,12,13.30
2016,11,03,09,13,16.10
2016,11,03,09,14,20.60
2016,11,03,09,15,17.50
2016,11,03,09,16,18.40
2016,11,03,09,17,21.40
2016,11,03,09,18,15.30
2016,11,03,09,19,21.50
2016,11,03,09,20,22.00
2016,11,03,09,21,18.70
2016,11,03,09,22,17.10
2016,11,03,09,23,20.10
2016,11,03,09,24,16.90
2016,11,03,09,25,18.70
2016,11,03,09,26,16.70
2016,11,03,09,27,19.50
2016,11,03,09,28,16.60
2016,11,03,09,29,18.50
2016,11,03,09,30,18.20
2016,11,03,09,31,18.70
2016,11,03,09,32,15.70
2016,11,03,09,33,16.80
2016,11,03,09,34,13.40
2016,11,03,09,35,18.30
2016,11,03,09,36,16.50
2016,11,03,09,37,18.60
2016,11,03,09,38,13.00
2016,11,03,09,39,17.80
2016,11,03,09,40,17.00
2016,11,03,09,41,16.10
2016,11,03,09,42,18.50
2016,11,03,09,43,20.30
2016,11,03,09,44,20.20
2016,11,03,09,45,16.90
2016,11,03,09,46,18.00
2016,11,03,09,47,18.50
2016,11,03,09,48,19.00
2016,11,03,09,49,24.90
2016,11,03,09,50,24.40
2016,11,03,09,51,16.50
2016,11,03,09,52,17.50
2016,11,03,09,53,12.30
2016,11,03,09,54,12.60
2016,11,03,09,55,17.00
2016,11,03,09,56,21.00
2016,11,03,09,57,19.20
2016,11,03,09,58,18.60
2016,11,03,09,59,19.50
2016,11,03,10,00,19.10
2016,11,03,10,01,19.40
2016,11,03,10,02,21.70
2016,11,03,10,03,15.70
2016,11,03,10,04,16.90
2016,11,03,10,05,18.30
2016,11,03,10,06,15.90
2016,11,03,10,07,13.20
2016,11,03,10,08,15.10
2016,11,03,10,09,15.60
2016,11,03,10,10,20.20
2016,11,03,10,11,17.50
2016,11,03,10,12,19.90
2016,11,03,10,13,19.70
2016,11,03,10,14,14.20
2016,11,03,10,15,11.30
2016,11,03,10,16,13.30
2016,11,03,10,17,11.60
2016,11,03,10,18,15.30
2016,11,03,10,19,16.40
2016,11,03,10,20,14.80
2016,11,03,10,21,17.40
2016,11,03,10,22,18.80
2016,11,03,10,23,19.10
2016,11,03,10,24,15.60
2016,11,03,10,25,19.50
2016,11,03,10,26,13.20
2016,11,03,10,27,17.50
2016,11,03,10,28,13.00
2016,11,03,10,29,19.10
2016,11,03,10,30,13.10
2016,11,03,10,31,14.90
2016,11,03,10,32,14.30
2016,11,03,10,33,17.00
2016,11,03,10,34,15.40
2016,11,03,10,35,10.00
2016,11,03,10,36,12.70
2016,11,03,10,37,13.60
2016,11,03,10,38,14.30
2016,11,03,10,39,11.10
2016,11,03,10,40,9.80
2016,11,03,10,41,11.50
2016,11,03,10,42,18.70
2016,11,03,10,43,13.50
2016,11,03,10,44,19.20
2016,11,03,10,45,22.20
2016,11,03,10,46,13.20
2016,11,03,10,47,12.10
2016,11,03,10,48,12.20
2016,11,03,10,49,15.30
2016,11,03,10,50,14.50
2016,11,03,10,51,14.20
2016,11,03,10,52,14.60
2016,11,03,10,53,16.20
2016,11,03,10,54,12.70
2016,11,03,10,55,16.20
2016,11,03,10,56,12.10
2016,11,03,10,57,15.90
2016,11,03,10,58,15.40
2016,11,03,10,59,14.10
2016,11,03,11,00,12.40
2016,11,03,11,01,13.00
2016,11,03,11,02,12.60
2016,11,03,11,03,14.60
2016,11,03,11,04,16.50
2016,11,03,11,05,15.30
2016,11,03,11,06,12.40
2016,11,03,11,07,15.50
2016,11,03,11,08,18.40
2016,11,03,11,09,19.40
2016,11,03,11,10,17.30
2016,11,03,11,11,13.40
2016,11,03,11,12,15.50
2016,11,03,11,13,16.60
2016,11,03,11,14,16.30
2016,11,03,11,15,16.30
2016,11,03,11,16,15.10
2016,11,03,11,17,11.40
2016,11,03,11,18,13.40
2016,11,03,11,19,13.80
2016,11,03,11,20,12.20
2016,11,03,11,21,17.60
2016,11,03,11,22,15.80
2016,11,03,11,23,20.50
2016,11,03,11,24,22.60
2016,11,03,11,25,20.30
2016,11,03,11,26,13.60
2016,11,03,11,27,18.90
2016,11,03,11,28,13.20
2016,11,03,11,29,11.40
2016,11,03,11,30,10.40
2016,11,03,11,31,11.80
2016,11,03,11,32,17.80
2016,11,03,11,33,17.10
2016,11,03,11,34,14.00
2016,11,03,11,35,18.00
2016,11,03,11,36,14.60
2016,11,03,11,37,18.20
2016,11,03,11,38,13.00
2016,11,03,11,39,12.70
2016,11,03,11,40,10.40
2016,11,03,11,41,15.30
2016,11,03,11,42,19.80
2016,11,03,11,43,13.40
2016,11,03,11,44,14.50
2016,11,03,11,45,12.10
2016,11,03,11,46,13.50
2016,11,03,11,47,14.10
2016,11,03,11,48,13.20
2016,11,03,11,49,10.90
2016,11,03,11,50,13.20
2016,11,03,11,51,8.90
2016,11,03,11,52,10.70
2016,11,03,11,53,8.00
2016,11,03,11,54,8.30
2016,11,03,11,55,10.80
2016,11,03,11,56,10.70
2016,11,03,11,57,8.50
2016,11,03,11,58,9.30
2016,11,03,11,59,8.30
2016,11,03,12,00,11.80
2016,11,03,12,01,5.80
2016,11,03,12,02,5.50
2016,11,03,12,03,9.20
2016,11,03,12,04,11.90
2016,11,03,12,05,11.30
2016,11,03,12,06,8.90
2016,11,03,12,07,12.60
2016,11,03,12,08,10.50
2016,11,03,12,09,10.80
2016,11,03,12,10,10.40
2016,11,03,12,11,6.40
2016,11,03,12,12,10.40
2016,11,03,12,13,9.40
2016,11,03,12,14,6.80
2016,11,03,12,15,6.90
2016,11,03,12,16,5.70
2016,11,03,12,17,11.60
2016,11,03,12,18,11.30
2016,11,03,12,19,7.20
2016,11,03,12,20,6.10
2016,11,03,12,21,5.20
2016,11,03,12,22,7.20
2016,11,03,12,23,7.10
2016,11,03,12,24,8.20
2016,11,03,12,25,8.30
2016,11,03,12,26,8.00
2016,11,03,12,27,5.30
2016,11,03,12,28,2.10
2016,11,03,12,29,1.10
2016,11,03,12,30,4.20
2016,11,03,12,31,5.60
2016,11,03,12,32,11.80
2016,11,03,12,33,12.10
2016,11,03,12,34,13.60
2016,11,03,12,35,10.50
2016,11,03,12,36,8.80
2016,11,03,12,37,7.00
2016,11,03,12,38,5.80
2016,11,03,12,39,7.80
2016,11,03,12,40,7.20
2016,11,03,12,41,6.40
2016,11,03,12,42,6.90
2016,11,03,12,43,11.30
2016,11,03,12,44,8.70
2016,11,03,12,45,6.60
2016,11,03,12,46,9.60
2016,11,03,12,47,8.50
2016,11,03,12,48,14.80
2016,11,03,12,49,15.20
2016,11,03,12,50,11.10
2016,11,03,12,51,10.70
2016,11,03,12,52,6.20
2016,11,03,12,53,7.10
2016,11,03,12,54,8.50
2016,11,03,12,55,14.30
2016,11,03,12,56,13.00
2016,11,03,12,57,14.00
2016,11,03,12,58,10.60
2016,11,03,12,59,6.30
2016,11,03,13,00,12.80
2016,11,03,13,01,11.70
2016,11,03,13,02,11.30
2016,11,03,13,03,9.00
2016,11,03,13,04,9.40
2016,11,03,13,05,6.00
2016,11,03,13,06,9.20
2016,11,03,13,07,7.10
2016,11,03,13,08,7.60
2016,11,03,13,09,7.80
2016,11,03,13,10,10.80
2016,11,03,13,11,12.60
2016,11,03,13,12,13.80
2016,11,03,13,13,8.70
2016,11,03,13,14,8.10
2016,11,03,13,15,11.50
2016,11,03,13,16,9.70
2016,11,03,13,17,11.60
2016,11,03,13,18,10.40
2016,11,03,13,19,11.50
2016,11,03,13,20,15.50
2016,11,03,13,21,15.20
2016,11,03,13,22,22.80
2016,11,03,13,23,22.10
2016,11,03,13,24,15.40
2016,11,03,13,25,12.90
2016,11,03,13,26,10.40
2016,11,03,13,27,10.70
2016,11,03,13,28,15.90
2016,11,03,13,29,16.80
2016,11,03,13,30,12.60
2016,11,03,13,31,16.00
2016,11,03,13,32,12.60
2016,11,03,13,33,14.10
2016,11,03,13,34,16.50
2016,11,03,13,35,15.00
2016,11,03,13,36,12.80
2016,11,03,13,37,16.80
2016,11,03,13,38,18.30
2016,11,03,13,39,14.80
2016,11,03,13,40,17.40
2016,11,03,13,41,15.20
2016,11,03,13,42,13.60
2016,11,03,13,43,17.80
2016,11,03,13,44,12.10
2016,11,03,13,45,15.40
2016,11,03,13,46,15.30
2016,11,03,13,47,15.10
2016,11,03,13,48,14.40
2016,11,03,13,49,17.80
2016,11,03,13,50,16.80
2016,11,03,13,51,13.00
2016,11,03,13,52,16.50
2016,11,03,13,53,15.10
2016,11,03,13,54,10.90
2016,11,03,13,55,13.00
2016,11,03,13,56,15.80
2016,11,03,13,57,12.40
2016,11,03,13,58,13.00
2016,11,03,13,59,18.10
2016,11,03,14,00,13.00
2016,11,03,14,01,16.30
2016,11,03,14,02,17.60
2016,11,03,14,03,17.90
2016,11,03,14,04,17.10
2016,11,03,14,05,16.90
2016,11,03,14,06,13.90
2016,11,03,14,07,17.90
2016,11,03,14,08,17.40
2016,11,03,14,09,20.70
2016,11,03,14,10,18.00
2016,11,03,14,11,13.90
2016,11,03,14,12,16.20
2016,11,03,14,13,15.60
2016,11,03,14,14,17.20
2016,11,03,14,15,12.90
2016,11,03,14,16,12.10
2016,11,03,14,17,11.50
2016,11,03,14,18,13.00
2016,11,03,14,19,17.70
2016,11,03,14,20,19.40
2016,11,03,14,21,15.70
2016,11,03,14,22,19.00
2016,11,03,14,23,19.80
2016,11,03,14,24,15.80
2016,11,03,14,25,13.40
2016,11,03,14,26,16.60
2016,11,03,14,27,18.50
2016,11,03,14,28,18.80
2016,11,03,14,29,19.40
2016,11,03,14,30,19.10
2016,11,03,14,31,21.00
2016,11,03,14,32,17.60
2016,11,03,14,33,20.20
2016,11,03,14,34,24.30
2016,11,03,14,35,21.10
2016,11,03,14,36,26.30
2016,11,03,14,37,22.10
2016,11,03,14,38,20.90
2016,11,03,14,39,19.90
2016,11,03,14,40,14.20
2016,11,03,14,41,13.30
2016,11,03,14,42,16.50
2016,11,03,14,43,17.40
2016,11,03,14,44,12.70
2016,11,03,14,45,14.80
2016,11,03,14,46,14.20
2016,11,03,14,47,17.90
2016,11,03,14,48,19.40
2016,11,03,14,49,18.30
2016,11,03,14,50,18.20
2016,11,03,14,51,18.20
2016,11,03,14,52,15.20
2016,11,03,14,53,12.20
2016,11,03,14,54,16.10
2016,11,03,14,55,16.60
2016,11,03,14,56,16.20
2016,11,03,14,57,18.60
2016,11,03,14,58,22.90
2016,11,03,14,59,21.90
2016,11,03,15,00,24.30
2016,11,03,15,01,23.70
2016,11,03,15,02,23.70
2016,11,03,15,03,20.90
2016,11,03,15,04,19.50
2016,11,03,15,05,21.60
2016,11,03,15,06,19.10
2016,11,03,15,07,21.00
2016,11,03,15,08,22.20
2016,11,03,15,09,19.70
2016,11,03,15,10,22.00
2016,11,03,15,11,20.00
2016,11,03,15,12,27.70
2016,11,03,15,13,20.70
2016,11,03,15,14,18.80
2016,11,03,15,15,23.00
2016,11,03,15,16,23.00
2016,11,03,15,17,24.20
2016,11,03,15,18,24.10
2016,11,03,15,19,27.40
2016,11,03,15,20,19.70
2016,11,03,15,21,27.40
2016,11,03,15,22,23.50
2016,11,03,15,23,24.20
2016,11,03,15,24,24.20
2016,11,03,15,25,19.20
2016,11,03,15,26,24.10
2016,11,03,15,27,19.50
2016,11,03,15,28,23.20
2016,11,03,15,29,23.40
2016,11,03,15,30,19.80
2016,11,03,15,31,28.90
2016,11,03,15,32,19.00
2016,11,03,15,33,20.20
2016,11,03,15,34,23.10
2016,11,03,15,35,26.70
2016,11,03,15,36,23.50
2016,11,03,15,37,20.90
2016,11,03,15,38,21.30
2016,11,03,15,39,21.50
2016,11,03,15,40,24.10
2016,11,03,15,41,22.60
2016,11,03,15,42,27.50
2016,11,03,15,43,22.10
2016,11,03,15,44,14.90
2016,11,03,15,45,17.10
2016,11,03,15,46,14.80
2016,11,03,15,47,25.90
2016,11,03,15,48,22.50
2016,11,03,15,49,29.00
2016,11,03,15,50,23.20
2016,11,03,15,51,25.70
2016,11,03,15,52,28.50
2016,11,03,15,53,26.30
2016,11,03,15,54,25.30
2016,11,03,15,55,23.70
2016,11,03,15,56,24.30
2016,11,03,15,57,25.10
2016,11,03,15,58,20.20
2016,11,03,15,59,16.90
2016,11,03,16,00,23.70
2016,11,03,16,01,22.80
2016,11,03,16,02,22.70
2016,11,03,16,03,19.80
2016,11,03,16,04,22.40
2016,11,03,16,05,20.80
2016,11,03,16,06,20.00
2016,11,03,16,07,21.10
2016,11,03,16,08,25.50
2016,11,03,16,09,25.20
2016,11,03,16,10,19.70
2016,11,03,16,11,22.20
2016,11,03,16,12,24.80
2016,11,03,16,13,30.30
2016,11,03,16,14,25.50
2016,11,03,16,15,19.30
2016,11,03,16,16,25.20
2016,11,03,16,17,19.40
2016,11,03,16,18,19.60
2016,11,03,16,19,28.10
2016,11,03,16,20,22.80
2016,11,03,16,21,22.20
2016,11,03,16,22,20.90
2016,11,03,16,23,22.20
2016,11,03,16,24,21.50
2016,11,03,16,25,21.90
2016,11,03,16,26,18.40
2016,11,03,16,27,23.80
2016,11,03,16,28,26.90
2016,11,03,16,29,24.10
2016,11,03,16,30,28.80
2016,11,03,16,31,22.50
2016,11,03,16,32,16.60
2016,11,03,16,33,22.80
2016,11,03,16,34,20.50
2016,11,03,16,35,20.30
2016,11,03,16,36,25.40
2016,11,03,16,37,21.80
2016,11,03,16,38,23.10
2016,11,03,16,39,21.10
2016,11,03,16,40,19.30
2016,11,03,16,41,21.00
2016,11,03,16,42,17.80
2016,11,03,16,43,20.40
2016,11,03,16,44,25.50
2016,11,03,16,45,22.20
2016,11,03,16,46,19.80
2016,11,03,16,47,23.50
2016,11,03,16,48,25.80
2016,11,03,16,49,19.10
2016,11,03,16,50,24.20
2016,11,03,16,51,25.70
2016,11,03,16,52,22.80
2016,11,03,16,53,27.60
2016,11,03,16,54,20.70
2016,11,03,16,55,18.40
2016,11,03,16,56,21.10
2016,11,03,16,57,20.40
2016,11,03,16,58,20.00
2016,11,03,16,59,20.50
2016,11,03,17,00,22.40
2016,11,03,17,01,19.10
2016,11,03,17,02,29.30
2016,11,03,17,03,35.30
2016,11,03,17,04,27.10
2016,11,03,17,05,19.10
2016,11,03,17,06,28.10
2016,11,03,17,07,25.00
2016,11,03,17,08,25.40
2016,11,03,17,09,23.90
2016,11,03,17,10,22.70
2016,11,03,17,11,25.50
2016,11,03,17,12,19.40
2016,11,03,17,13,28.60
2016,11,03,17,14,31.50
2016,11,03,17,15,26.20
2016,11,03,17,16,24.30
2016,11,03,17,17,23.20
2016,11,03,17,18,22.30
2016,11,03,17,19,19.60
2016,11,03,17,20,24.70
2016,11,03,17,21,28.50
2016,11,03,17,22,24.80